Tracking 21045 objects as of 3-Aug-2020
HD Live streaming from Space Station
objects crossing your sky now

COSMOS 530

Track COSMOS 530 now!
10-day predictions
COSMOS 530 is classified as:


NORAD ID: 6265
Int'l Code: 1972-087C
Perigee: 1,339.7 km
Apogee: 1,474.2 km
Inclination: 74.0 °
Period: 113.8 minutes
Semi major axis: 7777 km
RCS: 0.7215 m2 (medium)
Launch date: November 1, 1972
Source: Commonwealth of Independent States (former USSR) (CIS)
Launch site: PLESETSK MISSILE AND SPACE COMPLEX (PKMTR)
aabbcc
Your satellite tracking list
Your tracking list is empty




NASA's NSSDC Master Catalog

Two Line Element Set (TLE):
1  6265U 72087C   20215.87385019 -.00000027 +00000-0 -56496-4 0  9999
2  6265 074.0373 352.5201 0086459 100.6991 014.6598 12.65628183206284
Source of the keplerian elements: AFSPC